DW1389 Weather Reports


time (UTC)temp
C
wind
direction
speed
KPH
gust
KPH
rain 1hr
cm
rain 24hr
cm
rain mn
cm
humidity
%
barometer
mb
20260506163443 16 28 9.7 17.7 0.00 0.00 0.00 92 1012.3
20260506162940 16 14 9.7 19.3 0.00 0.00 0.00 94 1012.1
20260506162439 16 45 8.0 19.3 0.00 0.00 0.00 95 1011.9
20260506161937 15 34 8.0 16.1 0.00 0.00 0.00 94 1012.1
20260506161438 15 37 8.0 16.1 0.00 0.00 0.00 94 1012.7
20260506161220 16 60 6.4 16.1 0.00 0.00 0.00 94 1012.9
20260506160717 16 102 8.0 20.9 0.00 0.00 0.00 94 1013.2
20260506155937 16 21 8.0 20.9 0.00 0.00 0.00 94 1013.0
20260506155436 16 41 9.7 16.1 0.00 0.00 0.00 94 1012.9
20260506154937 16 41 8.0 17.7 0.00 0.00 0.00 94 1012.9
20260506154437 16 43 8.0 17.7 0.00 0.00 0.00 93 1012.9
20260506154220 17 45 8.0 22.5 0.00 0.00 0.00 92 1012.8
20260506153438 17 41 8.0 22.5 0.00 0.00 0.00 92 1012.7
20260506152938 18 47 8.0 17.7 0.00 0.00 0.00 91 1012.5
20260506152437 18 236 8.0 17.7 0.00 0.00 0.00 91 1012.3
20260506152222 18 288 9.7 16.1 0.00 0.00 0.00 91 1011.8
20260506151438 18 37 9.7 19.3 0.00 0.00 0.00 91 1011.6
20260506150934 18 41 9.7 19.3 0.00 0.00 0.00 91 1011.7
20260506150432 18 53 8.0 16.1 0.00 0.00 0.00 90 1011.6
20260506145932 19 51 6.4 16.1 0.00 0.00 0.00 90 1011.4
20260506145432 20 48 6.4 14.5 0.00 0.00 0.00 89 1011.1
20260506144932 21 22 6.4 14.5 0.00 0.00 0.00 88 1010.8
20260506144711 22 39 6.4 11.3 0.00 0.00 0.00 86 1010.5
20260506143930 25 6 3.2 11.3 0.00 0.00 0.00 80 1010.5
20260506143429 25 0 1.6 4.8 0.00 0.00 0.00 86 1010.1
20260506143152 25 63 1.6 4.8 0.00 0.00 0.00 87 1009.8
20260506142432 25 117 1.6 4.8 0.00 0.00 0.00 87 1009.7
20260506141931 25 152 3.2 6.4 0.00 0.00 0.00 88 1009.7
20260506141430 25 19 3.2 6.4 0.00 0.00 0.00 88 1009.5
20260506140930 25 147 1.6 6.4 0.00 0.00 0.00 90 1009.5
20260506140430 25 16 3.2 6.4 0.00 0.00 0.00 89 1009.7
20260506135930 24 195 3.2 9.7 0.00 0.00 0.00 90 1009.9
20260506135430 24 320 3.2 9.7 0.00 0.00 0.00 90 1009.6
20260506134930 24 126 3.2 8.0 0.00 0.00 0.00 90 1009.4
20260506134430 24 106 3.2 6.4 0.00 0.00 0.00 91 1009.3
20260506133930 25 137 3.2 6.4 0.00 0.00 0.00 90 1009.4
20260506133430 25 173 1.6 4.8 0.00 0.00 0.00 90 1009.5
20260506132931 24 89 1.6 4.8 0.00 0.00 0.00 90 1009.3
20260506132431 24 101 3.2 6.4 0.00 0.00 0.00 91 1009.2
20260506131930 23 297 1.6 6.4 0.00 0.00 0.00 93 1009.1
20260506131654 23 321 3.2 8.0 0.00 0.00 0.00 93 1009.1
20260506131154 23 143 3.2 8.0 0.00 0.00 0.00 94 1009.1
20260506130430 23 22 1.6 3.2 0.00 0.00 0.00 94 1009.1
20260506125929 23 296 1.6 6.4 0.00 0.00 0.00 95 1009.1
20260506125430 23 137 3.2 6.4 0.00 0.00 0.00 95 1009.0
20260506124930 23 306 3.2 6.4 0.00 0.00 0.00 95 1009.0
20260506124430 23 340 3.2 6.4 0.00 0.00 0.00 95 1008.9
20260506124155 23 86 3.2 6.4 0.00 0.00 0.00 95 1008.9
20260506123655 23 156 3.2 6.4 0.00 0.00 0.00 95 1008.8
20260506122930 23 156 1.6 4.8 0.00 0.00 0.00 95 1008.9
20260506122433 23 0 1.6 4.8 0.00 0.00 0.00 95 1008.8
20260506121930 23 133 1.6 4.8 0.00 0.00 0.00 95 1008.8
20260506121430 23 114 1.6 4.8 0.00 0.00 0.00 94 1008.8
20260506120930 23 125 1.6 4.8 0.00 0.00 0.00 94 1008.8
20260506120429 23 129 1.6 3.2 0.00 0.00 0.00 94 1008.8
20260506115930 23 114 1.6 3.2 0.00 0.00 0.00 94 1008.7
20260506115925 23 231 1.6 3.2 0.00 0.00 0.00 94 1008.6
20260506114930 23 0 1.6 3.2 0.00 0.00 0.00 94 1008.7
20260506114430 23 316 1.6 3.2 0.00 0.00 0.00 94 1008.7
20260506113930 23 140 1.6 4.8 0.00 0.00 0.00 94 1008.7
20260506113430 23 197 1.6 4.8 0.00 0.00 0.00 94 1008.8
20260506112930 23 0 1.6 3.2 0.00 0.00 0.00 94 1008.8
20260506112431 23 251 0.0 3.2 0.00 0.00 0.00 94 1008.8
20260506111930 23 127 0.0 3.2 0.00 0.00 0.00 94 1008.8
20260506111430 23 0 1.6 3.2 0.00 0.00 0.00 93 1008.8
20260506110929 23 282 1.6 3.2 0.00 0.00 0.00 93 1008.7
20260506110430 23 195 1.6 3.2 0.00 0.00 0.00 93 1008.7
20260506105930 23 273 1.6 3.2 0.00 0.00 0.00 93 1008.7
20260506105430 23 0 1.6 3.2 0.00 0.00 0.00 93 1008.6
20260506104930 23 311 1.6 8.0 0.00 0.00 0.00 93 1008.6
20260506104429 23 275 3.2 8.0 0.00 0.00 0.00 93 1008.6
20260506103930 23 171 1.6 4.8 0.00 0.00 0.00 93 1008.5
20260506103429 23 154 1.6 4.8 0.00 0.00 0.00 93 1008.4
20260506102929 23 192 1.6 4.8 0.00 0.00 0.00 93 1008.4
20260506102430 23 224 3.2 6.4 0.00 0.00 0.00 92 1008.3
20260506101930 23 174 3.2 6.4 0.00 0.00 0.00 92 1008.3
20260506101430 23 272 1.6 4.8 0.00 0.00 0.00 92 1008.3
20260506100930 23 30 1.6 4.8 0.00 0.00 0.00 92 1008.3
20260506100430 23 282 1.6 4.8 0.00 0.00 0.00 92 1008.3
20260506100159 23 58 3.2 6.4 0.00 0.00 0.00 92 1008.4
20260506095658 23 246 3.2 6.4 0.00 0.00 0.00 92 1008.2
20260506095159 23 354 3.2 8.0 0.00 0.00 0.00 92 1008.1
20260506094430 23 352 3.2 8.0 0.00 0.00 0.00 92 1008.1
20260506093930 23 254 3.2 9.7 0.00 0.00 0.00 92 1008.0
20260506093429 23 226 3.2 9.7 0.00 0.00 0.00 92 1007.9
20260506092930 23 222 3.2 8.0 0.00 0.00 0.00 92 1007.9
20260506092431 23 149 3.2 8.0 0.00 0.00 0.00 92 1007.9
20260506091930 23 98 1.6 6.4 0.00 0.00 0.00 92 1007.8
20260506091430 23 303 3.2 8.0 0.00 0.00 0.00 92 1007.8
20260506091158 23 267 3.2 8.0 0.00 0.00 0.00 92 1007.7
20260506090657 23 84 3.2 8.0 0.00 0.00 0.00 91 1007.7
20260506085932 23 332 3.2 6.4 0.00 0.00 0.00 91 1007.6
20260506085430 23 215 3.2 6.4 0.00 0.00 0.00 91 1007.7
20260506085158 23 293 3.2 6.4 0.00 0.00 0.00 91 1007.8
20260506084657 23 263 3.2 11.3 0.00 0.00 0.00 91 1007.8
20260506083930 23 268 3.2 11.3 0.00 0.00 0.00 91 1007.8
20260506083655 23 199 3.2 8.0 0.00 0.00 0.00 91 1007.7
20260506082930 23 302 3.2 8.0 0.00 0.00 0.00 91 1007.6
20260506082431 23 230 3.2 6.4 0.00 0.00 0.00 91 1007.6
20260506081930 23 154 3.2 9.7 0.00 0.00 0.00 91 1007.5
20260506081430 23 246 4.8 9.7 0.00 0.00 0.00 91 1007.5
20260506080930 23 237 6.4 14.5 0.00 0.00 0.00 91 1007.5
20260506080430 23 213 4.8 14.5 0.00 0.00 0.00 91 1007.6
20260506073430 23 286 4.8 12.9 0.00 0.00 0.00 91 1007.8
20260506072930 23 275 4.8 14.5 0.00 0.00 0.00 91 1007.8
20260506072429 23 217 6.4 14.5 0.00 0.00 0.00 91 1007.8
20260506071929 23 220 6.4 12.9 0.00 0.00 0.00 91 1007.8
20260506071428 23 224 6.4 12.9 0.00 0.00 0.00 91 1007.8
20260506071208 23 13 4.8 12.9 0.00 0.00 0.00 91 1007.9
20260506070429 23 217 4.8 9.7 0.00 0.00 0.00 92 1007.9
20260506062430 23 237 3.2 11.3 0.00 0.00 0.00 91 1007.8
20260506061929 24 269 3.2 11.3 0.00 0.00 0.00 92 1007.8
20260506061717 24 353 3.2 9.7 0.00 0.00 0.00 92 1007.7
20260506060930 24 287 3.2 8.0 0.00 0.00 0.00 92 1007.6
20260506060430 24 234 3.2 8.0 0.00 0.00 0.00 92 1007.7
20260506051402 24 185 4.8 11.3 0.00 0.00 0.00 91 1008.0
20260506050902 24 272 4.8 9.7 0.00 0.00 0.00 91 1008.0
20260506050402 24 134 3.2 8.0 0.00 0.00 0.00 91 1007.8
20260506050133 24 290 3.2 8.0 0.00 0.00 0.00 91 1007.8
20260506044902 24 268 4.8 11.3 0.00 0.00 0.00 91 1007.9
20260506044402 24 321 4.8 11.3 0.00 0.00 0.00 91 1008.0
20260506043901 24 165 3.2 9.7 0.00 0.00 0.00 91 1007.9
20260506043401 24 166 3.2 9.7 0.00 0.00 0.00 90 1007.9
20260506042901 24 187 3.2 9.7 0.00 0.00 0.00 90 1007.8
20260506042402 24 295 3.2 6.4 0.00 0.00 0.00 90 1007.8
20260506041905 24 182 3.2 11.3 0.00 0.00 0.00 90 1007.8
20260506041402 24 270 3.2 11.3 0.00 0.00 0.00 90 1007.8
20260506040902 24 231 3.2 6.4 0.00 0.00 0.00 90 1007.8
20260506040409 24 249 3.2 4.8 0.00 0.00 0.00 89 1007.5
20260506040401 24 139 3.2 6.4 0.00 0.00 0.00 89 1007.7
20260506035403 24 207 3.2 6.4 0.00 0.00 0.00 89 1007.6
20260506034902 24 54 3.2 6.4 0.00 0.00 0.00 89 1007.4
20260506034403 24 174 3.2 8.0 0.00 0.00 0.00 89 1007.4
20260506033901 24 283 3.2 8.0 0.00 0.00 0.00 88 1007.3
20260506033402 24 95 3.2 11.3 0.00 0.00 0.00 88 1007.3
20260506032900 25 72 3.2 11.3 0.00 0.00 0.00 88 1007.2
20260506032403 25 93 3.2 11.3 0.00 0.00 0.00 88 1007.2
20260506031901 25 212 4.8 11.3 0.00 0.00 0.00 88 1007.2
20260506031643 25 193 3.2 11.3 0.00 0.00 0.00 88 1007.1
20260506030901 25 106 4.8 11.3 0.00 0.00 0.00 88 1007.0
20260506030401 25 53 4.8 9.7 0.00 0.00 0.00 88 1007.0
20260506025900 25 298 4.8 9.7 0.00 0.00 0.00 87 1007.0
20260506025402 25 223 3.2 9.7 0.00 0.00 0.00 87 1007.0
20260506024902 25 57 3.2 8.0 0.00 0.00 0.00 87 1006.9
20260506024401 25 149 3.2 8.0 0.00 0.00 0.00 87 1006.7
20260506023901 25 241 3.2 8.0 0.00 0.00 0.00 87 1006.6
20260506023402 25 119 3.2 6.4 0.00 0.00 0.00 86 1006.5
20260506022902 25 196 3.2 8.0 0.00 0.00 0.00 86 1006.4
20260506022402 25 270 3.2 8.0 0.00 0.00 0.00 85 1006.3
20260506021902 25 65 1.6 4.8 0.00 0.00 0.00 84 1006.1
20260506021402 25 134 1.6 4.8 0.00 0.00 0.00 84 1006.1
20260506020901 25 99 3.2 4.8 0.00 0.00 0.00 83 1006.0
20260506020402 25 48 3.2 6.4 0.00 0.00 0.00 83 1005.8
20260506015906 26 307 1.6 4.8 0.00 0.00 0.00 83 1005.8
20260506015902 25 105 1.6 6.4 0.00 0.00 0.00 83 1005.8
20260506014902 26 295 1.6 4.8 0.00 0.00 0.00 82 1005.8
20260506014634 26 152 1.6 6.4 0.00 0.00 0.00 82 1005.8
20260506013902 26 137 3.2 6.4 0.00 0.00 0.00 81 1005.7
20260506013402 26 150 3.2 6.4 0.00 0.00 0.00 81 1005.8
20260506012902 26 37 3.2 8.0 0.00 0.00 0.00 80 1005.7
20260506012401 26 71 3.2 8.0 0.00 0.00 0.00 80 1005.6
20260506012129 26 183 3.2 4.8 0.00 0.00 0.00 80 1005.6
20260506011402 26 271 1.6 4.8 0.00 0.00 0.00 79 1005.6
20260506011133 27 58 1.6 4.8 0.00 0.00 0.00 79 1005.7
20260506010402 27 290 1.6 4.8 0.00 0.00 0.00 78 1005.8
20260506005904 27 161 1.6 4.8 0.00 0.00 0.00 78 1005.7
20260506005402 27 274 1.6 6.4 0.00 0.00 0.00 77 1005.7
20260506004902 27 170 1.6 6.4 0.00 0.00 0.00 76 1005.7
20260506004402 27 161 1.6 4.8 0.00 0.00 0.00 76 1005.6
20260506003901 27 155 1.6 8.0 0.00 0.00 0.00 76 1005.6
20260506003640 27 138 3.2 8.0 0.00 0.00 0.00 76 1005.6
20260506002902 27 55 3.2 8.0 0.00 0.00 0.00 76 1005.6
20260506002401 27 211 3.2 8.0 0.00 0.00 0.00 75 1005.6
20260506001901 27 256 3.2 8.0 0.00 0.00 0.00 75 1005.7
20260506001401 27 56 3.2 8.0 0.00 0.00 0.00 74 1005.7
20260506000936 27 324 3.2 8.0 0.00 0.00 0.00 74 1005.7
20260506000926 27 346 3.2 8.0 0.00 0.00 0.00 74 1005.7
20260505235902 28 67 3.2 8.0 0.00 0.00 0.00 74 1005.7
20260505235401 28 126 1.6 8.0 0.00 0.00 0.00 73 1005.6
20260505234901 28 235 3.2 9.7 0.00 0.00 0.00 74 1005.5
20260505234400 28 209 3.2 12.9 0.00 0.00 0.00 73 1005.4
20260505233900 28 119 4.8 12.9 0.00 0.00 0.00 72 1005.4
20260505233400 28 292 4.8 9.7 0.00 0.00 0.00 73 1005.3
20260505232901 28 216 4.8 17.7 0.00 0.00 0.00 73 1005.2
20260505232644 28 274 4.8 17.7 0.00 0.00 0.00 72 1005.2
20260505231901 28 147 3.2 11.3 0.00 0.00 0.00 71 1005.1
20260505231401 28 209 3.2 9.7 0.00 0.00 0.00 72 1005.1
20260505230901 28 234 3.2 9.7 0.00 0.00 0.00 71 1005.2
20260505230401 28 177 3.2 9.7 0.00 0.00 0.00 72 1005.1
20260505225901 28 263 3.2 9.7 0.00 0.00 0.00 71 1005.1
20260505225400 28 133 3.2 8.0 0.00 0.00 0.00 72 1005.1
20260505224901 28 169 3.2 9.7 0.00 0.00 0.00 72 1005.1
20260505224401 28 176 3.2 9.7 0.00 0.00 0.00 72 1005.1
20260505224141 28 0 3.2 14.5 0.00 0.00 0.00 72 1005.1
20260505223401 28 239 4.8 14.5 0.00 0.00 0.00 73 1005.1
20260505222902 28 134 4.8 12.9 0.00 0.00 0.00 71 1005.0
20260505222643 28 238 4.8 11.3 0.00 0.00 0.00 71 1004.9
20260505221902 28 175 4.8 11.3 0.00 0.00 0.00 71 1005.0
20260505221400 29 243 4.8 16.1 0.00 0.00 0.00 71 1005.1
20260505220901 29 320 3.2 16.1 0.00 0.00 0.00 70 1005.2
20260505220643 29 95 4.8 12.9 0.00 0.00 0.00 70 1005.2
20260505215901 29 130 4.8 11.3 0.00 0.00 0.00 70 1005.2
20260505215402 29 295 4.8 12.9 0.00 0.00 0.00 70 1005.4
20260505214901 28 269 6.4 12.9 0.00 0.00 0.00 71 1005.4
20260505214402 29 261 6.4 12.9 0.00 0.00 0.00 69 1005.4
20260505213902 29 271 4.8 11.3 0.00 0.00 0.00 68 1005.5
20260505213402 29 119 3.2 12.9 0.00 0.00 0.00 68 1005.5
20260505213144 29 225 4.8 17.7 0.00 0.00 0.00 69 1005.4
20260505212401 29 52 4.8 17.7 0.00 0.00 0.00 68 1005.6
20260505211901 29 146 4.8 19.3 0.00 0.00 0.00 69 1005.8
20260505211401 28 328 4.8 19.3 0.00 0.00 0.00 70 1005.8
20260505210901 28 316 4.8 16.1 0.00 0.00 0.00 69 1005.8
20260505210647 28 237 4.8 16.1 0.00 0.00 0.00 71 1005.7
20260505205904 28 159 4.8 12.9 0.00 0.00 0.00 71 1005.8
20260505205402 28 219 4.8 12.9 0.00 0.00 0.00 69 1005.9
20260505205143 28 125 4.8 11.3 0.00 0.00 0.00 70 1006.0
20260505204401 28 118 4.8 12.9 0.00 0.00 0.00 72 1006.0
20260505203901 28 254 4.8 12.9 0.00 0.00 0.00 71 1005.9
20260505203401 28 153 4.8 12.9 0.00 0.00 0.00 70 1006.1
20260505202902 28 228 4.8 16.1 0.00 0.00 0.00 71 1006.3
20260505202651 28 260 4.8 16.1 0.00 0.00 0.00 72 1006.3
20260505201903 28 250 4.8 12.9 0.00 0.00 0.00 72 1006.5
20260505201648 28 10 4.8 16.1 0.00 0.00 0.00 72 1006.7
20260505201148 28 195 4.8 16.1 0.00 0.00 0.00 72 1006.7
20260505200401 28 34 6.4 19.3 0.00 0.00 0.00 72 1006.7
20260505195902 28 225 6.4 19.3 0.00 0.00 0.00 72 1006.7
20260505195401 28 248 4.8 16.1 0.00 0.00 0.00 72 1006.8
20260505194901 28 260 4.8 16.1 0.00 0.00 0.00 73 1006.7
20260505194401 27 52 4.8 12.9 0.00 0.00 0.00 74 1006.9
20260505193901 27 257 4.8 14.5 0.00 0.00 0.00 74 1007.1
20260505193401 27 196 4.8 14.5 0.00 0.00 0.00 75 1007.2
20260505193146 27 209 4.8 11.3 0.00 0.00 0.00 73 1007.2
20260505192401 27 352 4.8 11.3 0.00 0.00 0.00 73 1007.2
20260505191901 27 186 4.8 11.3 0.00 0.00 0.00 74 1007.2
20260505191401 27 253 6.4 12.9 0.00 0.00 0.00 75 1007.3
20260505190901 27 227 6.4 12.9 0.00 0.00 0.00 75 1007.3
20260505190401 27 163 6.4 11.3 0.00 0.00 0.00 74 1007.3
20260505185900 27 268 6.4 11.3 0.00 0.00 0.00 75 1007.3
20260505185401 26 174 6.4 11.3 0.00 0.00 0.00 76 1007.4
20260505184901 26 307 6.4 17.7 0.00 0.00 0.00 76 1007.5
20260505184401 26 250 6.4 17.7 0.00 0.00 0.00 77 1007.6
20260505183900 26 234 6.4 14.5 0.00 0.00 0.00 76 1007.7
20260505183401 26 101 4.8 11.3 0.00 0.00 0.00 77 1007.7
20260505182901 26 328 4.8 12.9 0.00 0.00 0.00 78 1007.7
20260505182644 26 175 4.8 12.9 0.00 0.00 0.00 78 1007.8
20260505182150 25 264 4.8 12.9 0.00 0.00 0.00 79 1007.7
20260505181402 25 214 6.4 14.5 0.00 0.00 0.00 79 1007.8
20260505181221 25 213 6.4 17.7 0.00 0.00 0.00 79 1008.0
20260505180924 25 185 8.0 17.7 0.00 0.00 0.00 80 1007.9
20260505175900 25 215 6.4 12.9 0.00 0.00 0.00 79 1008.1
20260505175401 25 231 6.4 12.9 0.00 0.00 0.00 80 1008.1
20260505174901 25 133 6.4 17.7 0.00 0.00 0.00 80 1008.2
20260505174405 25 250 6.4 17.7 0.00 0.00 0.00 81 1008.1
20260505173900 25 264 6.4 12.9 0.00 0.00 0.00 81 1008.1
20260505173400 25 255 6.4 16.1 0.00 0.00 0.00 81 1008.2
20260505172900 25 237 6.4 16.1 0.00 0.00 0.00 82 1008.2
20260505172644 24 251 6.4 14.5 0.00 0.00 0.00 81 1008.2
20260505171901 24 229 6.4 14.5 0.00 0.00 0.00 83 1008.2
20260505171401 23 191 8.0 14.5 0.00 0.00 0.00 83 1008.2
20260505170901 23 271 6.4 16.1 0.00 0.00 0.00 83 1008.3
20260505170400 23 210 6.4 16.1 0.00 0.00 0.00 84 1008.3
20260505165903 23 279 6.4 14.5 0.00 0.00 0.00 84 1008.3
20260505165402 23 216 6.4 14.5 0.00 0.00 0.00 84 1008.3
20260505164901 23 230 6.4 14.5 0.00 0.00 0.00 85 1008.4
20260505164401 23 341 6.4 14.5 0.00 0.00 0.00 85 1008.3
20260505163901 23 250 6.4 12.9 0.00 0.00 0.00 86 1008.3